User: anonymous   Login
Location: Unspecified
(0.0000°N, 0.0000°E)
Time: 15:59:27
(UTC+02:00)
Language:

Cosmos 1898 Rocket - Orbit

View from above orbital plane
View from above orbital plane
View from above satellite
View from above satellite

Ground track
Ground track

The orbit data is extracted from the following two-line orbital elements,

1 18586U 87098B   17177.86167066 +.00000032 +00000-0 +19838-4 0  9991
2 18586 074.0076 277.5194 0021680 329.5843 169.6502 14.36782232548442
Epoch (UTC): 26 June 2017 20:40:48
Eccentricity: 0.0021680
inclination: 74.0076°
perigee height: 753 km
apogee height: 784 km
right ascension of ascending node: 277.5194°
argument of perigee: 329.5843°
revolutions per day: 14.36782232
mean anomaly at epoch: 169.6502°
orbit number at epoch: 54844

The dashed part of the orbit path shows where the satellite is in the earth's shadow,  

DLR